Location: Unspecified
(35.6961°N, 0.0000°E)
Time: 23:34:42
(UTC+00:00)

SR - Visible Passes

Search period start: 21 May 2019 00:00
Search period end: 31 May 2019 00:00
Orbit: 583 x 873 km, 66.7° (Epoch: 21 May)

Date Brightness Start Highest point End Pass type
(mag) Time Alt. Az. Time Alt. Az. Time Alt. Az.
21 May ? 19:36:06 10° N 19:39:54 24° NE 19:43:55 10° ESE visible
21 May ? 21:17:38 10° NW 21:21:55 34° WSW 21:23:29 28° SSW visible
22 May ? 20:27:42 10° NNW 20:32:25 78° WSW 20:35:33 23° SSE visible
23 May ? 19:38:16 10° NNW 19:42:48 47° ENE 19:47:41 10° SE visible
23 May ? 21:21:26 10° WNW 21:24:31 17° WSW 21:27:08 12° SW visible
24 May ? 20:30:43 10° NW 20:35:06 37° WSW 20:39:21 12° S visible
25 May ? 19:40:50 10° NNW 19:45:34 84° WSW 19:50:44 10° SSE visible
26 May ? 20:34:23 10° WNW 20:37:42 18° WSW 20:41:10 10° SSW visible
27 May ? 19:43:47 10° NW 19:48:16 40° WSW 19:53:05 10° S visible
29 May ? 19:47:21 10° WNW 19:50:52 20° WSW 19:54:34 10° SSW visible
